Weather WX

World > North America > United States > Mississippi

Campbell, Mississippi Regional Weather

Lat: 34.73N, Lon: 88.95W
Wx Zone: MSZ004
Warning FLW WEATHER ALERT - (More Info. Click Here) Warning
Feedback

Campbell, MS Regional Weather

Expires:201906161200;;157372
ASUS44 KJAN 161110
RWRMS 

MISSISSIPPI HOURLY WEATHER ROUNDUP
NATIONAL WEATHER SERVICE JACKSON MS
600 AM CDT SUN JUN 16 2019

NOTE: "FAIR: INDICATES FEW OR NO CLOUDS BELOW 12,000 FEET WITH NO
SIGNIFICANT WEATHER AND/OR OBSTRUCTIONS TO VISIBILITY.


MSZ003>006-009-014>017-022>024-029>033-037>039-161200-
NORTHEAST MISSISSIPPI
  
CITY           SKY/WX    TMP DP  RH WIND       PRES   REMARKS
ABERDEEN       FAIR      73  73 100 S5        30.00R                  
COLUMBUS AFB   FAIR      72  71  95 SE6       29.98S                  
CORINTH        FAIR      75  70  83 S6        29.97R                  
GOLDN TRIANGLE FAIR      74  72  93 S8        30.00R                  
STARKVILLE     FAIR      72  70  94 CALM      30.01R                  
TUPELO         FAIR     N/A N/A N/A S5        29.98R                  
$$


SKY/WX - Weather  TMP - Temperature  DP - Dew Point  RH - Relative Humidity
WIND - Wind Direction/Speed PRES - Barometric Pressure VSB - Visibility
WCI - Wind Chill Index E13G22 Wind - East Wind 13 mph/Gusts of 22 mph